CAPE
471 1341 2430 1804 1276 1200 1027 1139 1373 1709 1740 1884 1719 1967 2278 2578 2307 2128 2357 2455 2118 2171 2273 2445 2126 2033 1817 1327 1380 1342 970 1082 1162 1080 794 1012 1162 1281 1594 1518 1768 1467 1200
613 1420 2531 1946 1496 1126 1068 1190 1360 1595 1758 1745 1684 1938 1978 2136 2302 2256 2300 2023 2385 1991 2425 2454 2339 2186 1814 1376 1955 1910 1079 1041 1174 1324 1431 1496 1726 1870 1918 1768 1806 1946 2036
650 1323 2055 2274 2143 1207 1248 1276 1387 1545 1719 1586 1614 1681 1751 1809 1794 1992 2208 2176 1867 2219 2067 2360 2302 2094 1796 1647 1945 2060 2109 1963 1860 1778 1746 1170 1168 1741 1978 2104 2120 2205 2166
700 1055 1637 2548 2627 1618 1421 1498 1552 1628 1707 1528 1519 1537 1452 1473 1585 1675 1812 1982 1977 1982 2183 1859 2371 2009 2243 1887 2050 1777 2049 2019 2033 2032 1463 1192 1251 1911 2031 2136 2145 2093 2252
811 1138 1553 2855 3019 1783 1484 1786 1912 1881 1673 1513 1398 1240 1153 1097 1310 1852 1677 1783 1904 1915 2103 2139 1648 2009 2328 2430 2071 1657 1587 1826 2141 1413 1250 1088 1555 1950 1991 1982 2169 2300 2220
976 1282 2321 2824 2250 1948 1543 2022 2011 1951 1701 1497 1290 1038 955 922 1178 1719 1536 1469 1665 1528 1697 1882 2006 1466 1723 2017 1875 1815 1554 593 925 873 1031 1126 1427 1863 2357 2198 1623 1449 1642
1164 1774 1908 2753 2818 2229 1701 1910 1935 1862 1701 1522 1249 929 844 901 1005 1468 1523 1460 1532 1410 1455 1545 1730 1723 1625 1303 1551 1650 1565 1460 672 545 781 1190 1396 2727 2435 2266 1764 1482 2075
1375 1674 1962 2596 2814 2489 1798 1838 1882 1784 1648 1436 1180 839 761 1056 1193 1006 1408 1476 1441 1317 1332 1207 1157 1127 1382 1687 1646 1524 1544 1493 1109 770 820 791 1189 2627 2219 2484 1887 1432 1677
1160 1546 1711 1733 1784 2035 2252 1889 1758 1653 1525 1302 1070 884 840 765 1057 998 1013 1160 1139 1146 1209 1089 991 927 969 968 1016 1061 900 901 837 601 766 446 1538 2172 1915 1811 1383 1129 1081
1096 1193 1342 1442 1416 1476 1450 1742 1680 1613 1523 1323 1137 1037 901 1072 1282 780 1057 966 893 1134 1190 957 883 834 825 861 951 1063 1173 1210 719 475 761 723 1534 1918 1670 1198 988 1023 1310
1038 1038 1106 1147 1137 1102 1178 1276 1531 1670 1580 1321 992 1132 1039 687 2 42 622 962 988 714 1146 819 812 879 1102 1176 1176 1179 1182 837 625 333 522 955 1574 1712 1246 1444 1934 2427 2348
558 759 914 1088 1045 1026 990 1124 1053 814 788 827 927 849 822 517 55 215 86 769 629 723 586 567 591 873 997 758 763 1117 999 817 633 433 324 1268 1573 1835 2253 2520 2897 2594 2236
287 353 384 336 425 549 614 687 760 736 898 797 875 862 443 85 32 9 85 31 74 9 9 408 132 207 464 528 400 502 592 743 548 435 657 1596 1679 1666 1981 2745 2616 2633 2181
295 395 331 435 284 473 587 490 568 905 983 954 929 1031 791 26 58 45 259 49 9 0 10 106 226 377 364 498 617 525 685 597 565 512 467 1731 2004 2041 2211 2595 2667 2610 2169
388 371 458 718 584 637 718 633 757 1065 962 940 901 778 445 196 90 114 88 125 190 171 364 334 240 434 541 600 533 646 594 603 594 638 469 1712 2150 2028 2502 2762 2147 2175 2075
768 703 690 898 913 701 593 711 987 1015 763 470 594 638 548 315 152 105 72 78 27 31 118 249 337 264 324 563 924 967 733 781 636 510 427 973 2279 2041 2103 2687 2740 2565 2173
817 1076 919 959 1164 921 837 906 737 822 793 647 655 824 694 239 233 224 107 237 191 173 218 298 675 613 587 795 705 788 869 790 725 575 520 564 1167 2354 2219 2420 2840 2778 2760
845 911 771 890 1288 1147 1065 831 747 621 381 436 919 742 584 320 403 764 657 490 468 535 531 679 870 423 406 549 494 457 713 846 936 782 738 544 783 1173 2132 2421 2530 2195 2578
876 882 632 813 1205 951 1123 1093 986 730 638 604 833 767 529 671 536 607 716 763 747 853 606 849 811 681 640 568 304 434 472 735 903 1345 740 754 711 831 763 1678 2236 2260 2000
953 783 802 810 1370 819 1164 847 483 389 609 636 560 732 311 752 613 573 756 952 831 921 739 507 313 1031 820 633 607 598 731 658 763 912 993 914 946 937 763 864 1645 1916 2362
826 870 926 1393 1455 1134 1152 970 832 947 968 840 848 760 494 245 317 599 540 392 561 687 510 547 770 690 153 489 440 743 477 51 476 743 949 839 1033 1140 1006 800 607 1125 1307
759 871 956 908 727 1161 1418 1133 993 909 1041 923 1123 705 627 498 550 833 516 420 324 915 744 884 1059 875 762 449 559 508 359 241 390 605 738 957 931 1281 1112 990 571 1089 1019
834 1056 974 978 762 1258 1080 1156 1054 1304 1168 1412 1488 1178 914 880 979 1037 747 674 535 889 637 663 876 1037 810 775 748 584 650 374 342 437 404 467 649 743 705 19 240 844 1090
892 1105 1062 1051 838 1299 1368 1203 1011 634 646 966 1258 1083 1269 1206 1291 792 840 1100 761 562 957 708 1013 817 851 728 776 726 596 884 741 520 121 192 317 244 191 92 480 859 1097
1334 997 1148 1079 713 962 1064 954 888 556 498 748 1150 1446 1219 1486 1412 1532 1192 1082 1124 816 882 695 937 1099 905 1270 1071 1011 796 686 672 548 422 257 315 299 373 379 729 932 781
906 1581 1306 1090 1298 910 888 1096 933 800 783 912 1370 1732 1521 1345 1856 1673 1355 1194 1223 1166 885 850 953 1041 895 1008 808 952 802 492 440 558 558 516 421 148 98 137 178 727 656
CIN
-22 -2 0 0 -1 -2 -5 -9 -7 -1 0 0 -5 0 0 0 0 0 0 0 0 0 0 0 0 0 0 -1 -2 -4 -18 -10 -3 0 0 0 -1 -1 0 0 0 -1 -4
-57 -1 0 0 -2 -3 -4 -7 -2 -1 0 0 0 0 0 0 0 0 0 0 0 0 0 0 0 0 0 0 0 0 -2 -3 0 0 0 0 0 0 0 0 0 0 0
-60 -1 0 0 0 -3 -1 -3 -3 0 0 0 0 0 0 0 0 0 0 0 0 0 0 0 0 0 0 0 0 0 0 0 0 0 0 -2 0 0 0 0 0 0 0
-69 -19 -1 0 0 0 0 0 -1 0 0 0 0 0 0 0 0 0 0 0 0 0 0 0 0 0 0 0 0 0 0 0 0 0 -13 -6 0 0 0 0 0 0 0
-56 -34 -10 0 0 0 0 0 0 0 0 0 0 0 -1 -3 0 0 0 0 0 0 -1 0 0 0 0 0 0 -2 -2 0 0 -7 -16 -15 -1 0 0 0 0 0 0
-49 -29 0 0 0 0 0 0 0 0 0 0 0 -13 -15 -9 0 0 0 0 0 0 0 0 0 -1 0 0 0 0 -3 -18 -10 -8 -17 -34 -15 0 0 0 0 -1 0
-43 -5 0 0 0 0 0 0 0 0 0 0 0 -13 -22 -14 -4 0 0 0 0 -1 0 0 0 0 0 -7 -1 -1 -7 -12 -42 -19 -25 -25 -14 0 0 0 0 0 0
-73 -16 -1 0 0 0 0 0 0 0 0 0 -8 -16 -15 -2 0 -1 0 0 0 0 -2 -4 0 -2 -5 -1 -1 -2 -3 -4 -4 -52 -24 -35 -22 0 0 0 0 -3 -1
-102 -58 -22 -11 -3 0 0 0 0 0 0 -4 -12 -12 -7 -9 -1 -1 0 0 0 0 -1 -9 -12 -13 -15 -23 -26 -19 -23 -14 -18 -81 -67 -50 -22 -3 -2 -14 -26 -38 -31
-77 -76 -63 -36 -24 -3 -3 0 0 0 -1 -11 -16 -11 -5 -1 -5 -7 -7 -2 -3 0 0 -3 -8 -13 -22 -27 -27 -30 -24 -13 -33 -84 -136 -113 -21 -6 -3 -35 -59 -54 -20
-51 -66 -61 -54 -47 -31 -23 -20 -4 0 -7 -17 -25 -9 -13 -16 -15 -42 -28 -5 0 -1 0 -10 -17 -12 -6 -15 -20 -23 -29 -46 -42 -69 -88 -79 -21 -7 -19 -14 -2 0 0
-112 -86 -72 -64 -68 -55 -51 -36 -29 -35 -37 -32 -24 -19 -36 -34 -63 -123 -60 -25 -1 -6 -12 -13 -10 -15 -14 -33 -46 -36 -31 -42 -49 -57 -50 -53 -22 -9 -2 -1 0 0 0
-208 -161 -145 -163 -144 -112 -93 -71 -51 -52 -41 -29 -19 -22 -70 -145 -74 -137 -159 -108 -92 -43 -37 -34 -47 -76 -49 -46 -77 -46 -35 -41 -77 -87 -91 -37 -20 -13 -9 -3 -3 0 0
-167 -161 -131 -37 -106 -29 -40 -101 -98 -71 -67 -54 -46 -36 -59 -45 -209 -99 -97 -137 -79 -2 -9 -30 -28 -16 -63 -70 -69 -74 -51 -64 -79 -65 -55 -58 -31 -15 -6 -5 -2 -4 -2
-41 -121 -53 -53 -35 -73 -57 -120 -103 -70 -85 -67 -52 -63 -54 -23 -32 -178 -217 -154 -97 -129 -71 -39 -54 -25 -41 -51 -52 -49 -94 -28 -125 -94 -83 -64 -45 -24 -6 -1 -6 -3 -2
-97 -136 -27 -56 -74 -59 -35 -28 -61 -40 -58 -37 -75 -100 -43 -32 -181 -156 -211 -73 -20 -17 -36 -48 -43 -56 -86 -41 -28 -31 -47 -32 -40 -85 -114 -111 -57 -33 -17 -4 -1 0 0
-105 -53 -37 -46 -52 -48 -38 -45 -54 -40 -30 -27 -86 -61 -49 -99 -17 -31 -172 -31 -46 -25 -57 -36 -40 -55 -81 -55 -80 -79 -45 -37 -24 -16 -21 -20 -107 -40 -23 -7 -1 0 0
-90 -67 -45 -50 -65 -75 -47 -23 -17 -33 -34 -43 -38 -51 -52 -33 -33 -13 -23 -17 -35 -35 -34 -56 -53 -118 -126 -108 -47 -40 -23 -42 -28 -20 -20 -22 -129 -115 -53 -25 -9 -10 0
-82 -80 -67 -58 -75 -72 -17 -30 -34 -26 -30 -51 -37 -35 -48 -31 -32 -31 -40 -41 -30 -18 -42 -94 -81 -63 -63 -47 -32 -131 -36 -35 -87 -45 -32 -22 -27 -190 -156 -89 -36 -18 -7
-77 -121 -83 -136 -67 -88 -18 -27 -48 -85 -30 -45 -40 -55 -42 -44 -51 -55 -41 -41 -54 -41 -61 -73 -17 -29 -83 -60 -128 -54 -73 -92 -24 -60 -38 -61 -46 -39 -27 -168 -84 -47 -6
-88 -182 -144 -78 -68 -61 -127 -64 -52 -44 -30 -38 -25 -78 -18 -46 -80 -52 -27 -25 -65 -31 -29 -23 -7 -29 -87 -130 -128 -56 -24 -43 -175 -99 -24 -40 -139 -108 -40 -67 -58 -88 -82
-145 -194 -126 -91 -58 -70 -80 -40 -28 -17 -42 -35 -41 -40 -36 -96 -76 -51 -35 -16 -52 -39 -26 -54 -19 -14 -44 -42 -24 -31 -28 -92 -88 -53 -48 -135 -20 -123 -156 -134 -162 -90 -84
-185 -182 -134 -85 -95 -129 -105 -43 -49 -57 -36 -48 -35 -46 -39 -106 -43 -65 -34 -16 -24 -63 -29 -17 -35 -23 -17 -24 -37 -19 -14 -33 -47 -45 -48 -129 -85 -67 -59 -12 -56 -100 -104
-229 -181 -118 -86 -44 -154 -79 -63 -56 -88 -64 -52 -26 -28 -28 -45 -27 -15 -45 -60 -31 -114 -38 -79 -27 -25 -30 -27 -26 -115 -32 -25 -13 -3 -14 -209 -153 -62 -40 -451 -224 -181 -87
-199 -181 -128 -262 -107 -137 -119 -116 -96 -143 -183 -61 -19 -19 -16 -59 -55 -36 -28 -51 -26 -79 -51 -58 -53 -26 -31 -23 -17 -18 -35 -55 -58 -10 -24 -15 -112 -104 -79 -97 -89 -72 -66
-68 -133 -99 -79 -187 -69 -65 -23 -61 -58 -229 -174 -68 -15 -18 -21 -34 -43 -34 -20 -11 -18 -17 -20 -59 -29 -34 -31 -59 -53 -51 -47 -33 -24 -25 -35 -16 -16 -22 -82 -191 -66 -42
Wind_Speed
12 10 14 16 16 14 14 16 16 18 16 11 8 5 5 7 8 6 8 5 4 3 3 1 2 3 2 3 5 6 6 8 10 9 8 8 11 10 9 9 10 9 9
12 11 15 15 17 16 17 19 18 20 17 13 7 2 2 4 4 2 3 7 5 5 6 6 4 4 5 5 7 9 9 10 10 11 12 11 11 9 9 10 10 11 14
12 11 11 15 16 18 18 20 21 21 20 15 7 3 3 3 2 1 1 3 3 3 4 6 7 7 7 6 6 7 9 11 11 10 10 8 10 9 7 9 11 13 14
10 9 8 14 16 19 18 19 21 21 18 16 9 4 4 4 3 2 0 2 2 1 2 3 7 9 10 9 7 6 6 9 10 11 9 9 7 8 9 10 13 13 14
7 6 9 13 15 18 17 18 19 18 16 15 12 8 4 4 6 5 2 1 3 3 2 5 5 7 6 5 4 6 10 12 16 9 10 8 5 8 10 11 11 10 9
7 3 10 13 16 16 16 15 16 16 16 16 15 11 6 4 6 5 4 2 1 0 1 2 4 6 8 6 4 5 6 4 5 4 7 9 5 10 11 11 12 11 14
6 3 5 11 13 15 15 13 13 15 16 18 16 13 10 4 4 7 5 4 4 3 2 3 4 6 6 8 9 7 8 7 4 2 5 7 6 10 12 13 11 14 13
11 5 3 11 13 14 14 13 14 16 15 13 12 12 12 9 6 6 6 7 7 6 4 5 5 6 8 10 10 10 10 8 6 9 8 6 11 16 14 13 12 12 13
10 8 5 3 8 13 13 14 16 17 16 13 9 10 11 12 11 8 8 8 10 10 8 7 7 8 9 10 12 12 10 9 10 6 8 4 14 16 18 15 13 13 14
8 6 4 2 5 3 6 14 15 15 18 21 14 14 13 6 6 13 10 11 11 13 13 10 9 11 12 12 14 16 16 16 7 5 3 6 15 19 20 18 17 15 14
7 5 5 4 5 5 5 10 14 16 19 24 21 15 5 2 nan nan 12 12 12 13 12 13 14 15 15 15 17 19 19 8 12 12 10 16 20 22 21 15 16 16 15
9 6 5 4 4 6 5 6 6 9 11 14 15 12 2 7 nan 8 nan 10 13 12 12 14 15 16 16 11 10 15 11 11 8 10 12 20 23 22 20 18 17 17 16
17 11 7 4 5 5 0 3 2 5 8 10 14 17 12 nan nan nan nan nan nan nan nan 13 11 11 12 11 12 14 13 13 13 14 15 21 21 21 19 19 21 21 20
17 14 10 6 6 3 3 0 6 7 11 10 12 20 18 nan nan nan 11 nan nan nan nan 13 10 11 10 13 12 11 10 12 12 13 16 20 19 23 23 22 22 23 22
13 14 12 10 7 6 3 2 5 9 12 12 12 16 13 11 nan 8 nan 13 8 8 9 11 11 11 11 11 10 9 9 11 13 11 10 20 20 23 23 24 25 25 26
12 13 14 9 6 8 4 1 4 9 11 13 10 13 19 20 20 19 nan nan nan nan 6 10 8 8 12 13 10 10 11 10 12 15 9 11 17 19 19 21 21 23 24
17 15 7 9 9 7 4 1 3 4 6 10 7 8 12 18 17 14 12 16 16 6 11 11 9 11 11 11 12 11 11 14 12 14 11 13 17 22 21 22 21 21 22
14 19 5 4 5 6 5 5 6 1 2 6 4 6 11 15 12 11 13 15 16 12 9 8 3 8 10 11 12 12 14 12 12 12 9 9 12 12 18 23 24 24 25
20 21 15 4 2 6 8 9 6 2 5 1 2 2 9 12 10 11 12 13 13 10 11 12 8 7 12 9 10 11 10 10 10 4 7 10 11 12 8 15 21 20 23
21 23 18 8 4 2 8 9 10 7 5 6 1 3 6 5 6 7 8 8 9 8 10 8 11 3 9 13 11 8 7 8 9 5 1 6 3 4 6 7 7 8 17
18 16 17 12 13 0 7 7 6 4 5 5 6 9 6 5 4 3 1 1 2 4 6 6 4 5 6 8 5 2 3 nan 5 3 4 2 5 7 6 3 3 4 3
18 17 16 14 16 12 3 3 2 2 4 4 7 9 8 9 8 8 5 3 4 4 4 2 4 2 1 3 7 3 2 4 5 9 7 3 4 7 5 1 8 2 3
17 20 21 17 15 10 8 7 5 6 7 9 8 10 11 13 12 10 9 8 7 8 6 6 6 7 4 3 5 6 6 4 1 7 10 7 8 7 15 nan 7 7 5
10 8 13 17 15 13 9 4 6 8 6 5 8 9 7 7 9 11 12 9 8 6 6 9 11 9 13 7 8 6 8 10 7 4 7 7 12 8 12 nan 7 9 14
7 8 6 3 12 13 14 12 8 6 3 3 1 5 6 8 8 10 13 13 14 10 8 9 12 13 13 15 12 13 15 17 12 11 9 8 10 10 8 9 8 12 17
10 7 6 5 7 4 5 8 10 11 9 6 3 5 8 8 11 11 14 14 15 15 14 14 13 13 12 14 15 16 16 17 14 15 14 10 16 10 nan 7 9 11 15
Wind_Direction
19 31 1 14 2 351 337 338 334 334 328 325 318 295 252 230 239 254 238 230 232 196 179 298 341 324 306 274 326 358 13 11 27 24 6 4 18 9 358 352 354 16 4
353 11 359 4 358 352 344 343 342 348 351 352 2 27 194 211 233 273 272 235 237 233 214 296 297 296 317 321 341 348 8 17 16 10 357 4 11 6 2 0 4 20 15
347 7 3 356 358 350 350 349 348 356 3 3 20 69 120 156 182 200 260 261 231 207 259 335 317 311 322 347 358 2 12 18 11 7 4 50 51 25 20 7 21 18 14
335 6 6 354 357 350 356 357 352 357 5 11 15 66 106 106 90 101 153 239 305 95 19 347 329 335 339 349 27 23 36 18 17 358 58 46 26 12 30 23 26 21 14
311 0 2 351 352 351 356 3 354 358 11 20 22 38 79 114 122 124 121 331 283 291 299 337 352 335 339 352 10 25 32 39 22 26 60 64 47 31 26 24 26 17 9
297 339 349 344 350 353 355 360 355 360 16 30 33 38 50 103 126 135 121 69 47 180 84 322 26 9 4 357 21 42 38 57 36 83 58 43 45 26 19 23 18 16 16
292 308 350 340 347 354 354 358 359 8 24 38 40 46 54 51 110 125 114 80 58 18 33 53 77 75 39 33 42 48 53 36 45 99 88 81 68 23 17 21 360 15 16
300 292 330 335 339 348 350 357 5 8 19 39 48 51 52 53 66 90 89 81 62 48 14 43 58 69 68 64 56 63 81 100 119 128 88 70 67 33 20 5 3 10 17
297 295 322 320 328 337 349 359 9 8 6 12 28 48 51 65 75 88 102 88 82 76 59 45 55 71 74 81 83 81 87 90 76 137 107 73 57 38 24 12 9 13 19
294 282 289 238 260 287 19 9 18 11 10 22 29 21 32 60 95 93 102 89 68 72 69 61 66 72 75 81 91 99 98 91 110 110 108 80 55 31 36 19 13 16 21
295 284 293 246 252 284 31 40 31 27 25 35 33 25 326 30 nan nan 99 71 59 54 64 70 65 72 73 75 79 79 82 94 82 77 73 55 51 42 34 26 22 25 29
324 330 309 274 276 291 14 49 51 48 43 40 26 4 43 46 nan 115 nan 101 84 69 72 69 70 74 79 93 95 87 91 96 87 74 84 75 38 47 39 33 36 36 32
345 336 348 302 275 291 49 16 5 47 33 34 28 5 46 nan nan nan nan nan nan nan nan 95 95 107 98 86 89 104 100 90 92 93 86 66 53 49 54 42 41 41 39
350 345 338 289 263 287 20 351 17 47 43 30 30 22 33 nan nan nan 79 nan nan nan nan 98 98 93 88 87 87 91 95 82 90 90 87 65 57 58 59 50 50 50 45
358 337 304 288 274 246 293 343 45 51 52 43 33 28 57 55 nan 106 nan 77 129 142 105 101 89 88 90 87 90 83 82 78 90 80 79 65 55 53 53 50 46 47 48
323 321 303 275 281 244 261 333 63 56 52 60 40 48 45 61 73 73 nan nan nan nan 134 104 85 94 101 104 96 78 78 73 70 77 78 78 52 52 51 54 50 49 50
351 330 306 233 215 223 185 329 26 51 36 67 60 48 48 62 58 67 75 63 70 117 113 89 100 96 94 110 108 106 89 75 64 70 73 81 69 49 47 55 54 53 54
354 16 26 156 155 169 175 197 212 145 331 97 88 22 34 55 61 73 73 69 61 59 82 78 116 135 131 117 120 110 108 103 79 73 82 78 76 56 56 52 53 54 52
24 37 52 151 199 158 178 203 201 216 297 67 101 29 34 49 42 47 62 71 66 41 41 23 75 164 150 161 138 123 115 110 116 80 44 39 45 54 66 55 43 45 56
35 31 30 77 69 154 217 204 202 213 233 282 80 49 20 50 15 47 50 67 72 45 61 43 52 140 44 78 103 115 148 138 110 138 244 86 46 60 29 36 50 37 41
44 30 18 67 69 180 201 214 207 208 214 242 312 344 353 342 354 357 134 6 18 35 44 37 36 82 66 78 78 50 16 nan 111 173 240 230 305 19 5 289 300 305 35
50 56 54 66 63 53 174 194 203 248 240 257 274 304 317 318 319 310 317 315 295 272 248 342 1 38 352 6 35 291 318 62 340 280 321 87 336 353 338 26 266 238 26
65 59 66 58 45 57 57 200 232 228 231 242 264 289 318 326 313 322 321 306 291 283 282 288 290 316 296 313 5 321 284 355 252 302 336 306 337 317 16 nan 324 18 327
41 66 85 74 73 59 39 1 327 315 285 289 287 288 304 309 306 292 287 282 288 278 280 272 269 267 279 278 261 276 280 281 295 262 302 283 319 348 27 nan 5 346 1
321 332 64 60 77 64 52 34 27 3 12 106 204 327 294 282 268 273 288 289 284 280 274 275 272 269 262 268 263 258 266 268 272 277 271 278 281 313 354 24 27 22 346
244 226 266 345 20 96 83 38 22 9 6 6 2 316 305 309 296 286 285 279 284 290 290 283 280 278 266 263 275 281 277 272 273 277 278 280 291 299 nan 351 19 11 18